sat.trackr.live / text

‹ back to catalog

STARLINK-32281

NORAD 60375 · 2024-138W

PAYLOAD ACTIVE UNKNOWN

§ Identity

Operator
Country
US
Launch date
2024-08-04
Launch site
AFWTR
Launch vehicle
Mass (kg)
RCS (m²)

Purposes: comms

External: N2YO · Heavens-Above · Gunter

§ Orbital elements

Epoch: 2026-09-21T20:42:27.439776Z

Period
93.85 min
Inclination
53.1597°
Eccentricity
0.0001558
Mean motion
15.34420942 rev/d
Perigee alt
461.6 km
Apogee alt
463.7 km
Semi-major
6,840.8 km
B*
-2.1318e-4
RAAN
115.4836°
Arg perigee
99.0977°
Mean anomaly
261.0202°
Rev number
12,060

§ Raw data

STARLINK-322811 60375U 24138W   26264.86281759 -.00007577  00000+0 -21318-3 0  99902 60375  53.1597 115.4836 0001558  99.0977 261.0202 15.34420942120607

JSON: /api/v1/satellites/60375 · /tle

For live sub-satellite position, see the globe view (requires WebGL).

§ Visibility from observer

Set your observer location to see the next 7 days of passes ≥ 10°. The values pass through the URL so the page stays shareable.

No JS? Fill the form by hand. The geolocation button needs JavaScript.